Tracking 25612 objects as of 19-May-2022
HD Live streaming from Space Station
objects crossing your sky now

COSMOS 1375 DEB

Track COSMOS 1375 DEB now!
10-day predictions


NORAD ID: 17794
Int'l Code: 1982-055AL
Perigee: 883.3 km
Apogee: 961.8 km
Inclination: 65.8 °
Period: 103.3 minutes
Semi major axis: 7293 km
RCS: 0.0068 m2 (small)
Launch date: June 6, 1982
Source: Commonwealth of Independent States (former USSR) (CIS)
Launch site: PLESETSK MISSILE AND SPACE COMPLEX (PKMTR)

Note: This is SATELLITE DEBRIS
aabbcc
Your satellite tracking list
Your tracking list is empty




NASA's NSSDC Master Catalog

Two Line Element Set (TLE):
1 17794U 82055AL  22139.05094349  .00002000  00000-0  15616-2 0  9992
2 17794  65.8192 132.0507 0053778 332.1895  27.6304 13.93787532844253
Source of the keplerian elements: AFSPC